Location: Newark
(41.5333°N, 14.5500°E)
Time: 22:09:46
(UTC+00:00)

Envisat - Pass Details

Date: 01 February 2020
Orbit: 764 x 766 km, 98.1° (Epoch: 19 February)

Event Time Altitude Azimuth Distance (km) Brightness Sun altitude
Rises 05:12:09 0° 19° (NNE) 3,240 6.3 -11.9°
Reaches altitude 10° 05:14:35 10° 26° (NNE) 2,309 5.7 -11.5°
Maximum altitude 05:19:25 43° 98° (E) 1,065 4.4 -10.6°
Drops below altitude 10° 05:24:13 10° 170° (S) 2,293 5.8 -9.7°
Sets 05:26:37 0° 177° (S) 3,214 6.5 -9.3°
